| time (UTC) | temp F | wind direction | speed knots | gust knots | rain 1hr in | rain 24hr in | rain mn in | humidity % | barometer mb |
| 20260505153003 | 55 | 167 | 1.7 | 1.7 | 0.00 | 0.00 | 0.00 | 90 | 1016.6 |
| 20260505152500 | 55 | 193 | 0.0 | 0.0 | 0.00 | 0.00 | 0.00 | 90 | 1016.6 |
| 20260505151955 | 55 | 181 | 3.5 | 5.2 | 0.00 | 0.00 | 0.00 | 90 | 1016.6 |
| 20260505151451 | 55 | 191 | 1.7 | 1.7 | 0.00 | 0.00 | 0.00 | 90 | 1016.6 |
| 20260505150949 | 55 | 202 | 1.7 | 1.7 | 0.00 | 0.00 | 0.00 | 90 | 1016.6 |
| 20260505150445 | 55 | 237 | 3.5 | 4.3 | 0.00 | 0.00 | 0.00 | 90 | 1016.5 |
| 20260505140416 | 54 | 181 | 0.9 | 0.9 | 0.00 | 0.00 | 0.00 | 92 | 1016.1 |
| 20260505124829 | 54 | 196 | 2.6 | 2.6 | 0.00 | 0.00 | 0.00 | 92 | 1015.3 |
| 20260505124326 | 54 | 185 | 0.9 | 0.9 | 0.00 | 0.00 | 0.00 | 93 | 1015.3 |
| 20260505123822 | 54 | 185 | 2.6 | 2.6 | 0.00 | 0.00 | 0.00 | 93 | 1015.2 |
| 20260505123319 | 54 | 196 | 1.7 | 1.7 | 0.00 | 0.00 | 0.00 | 93 | 1015.2 |
| 20260505122815 | 54 | 177 | 1.7 | 1.7 | 0.00 | 0.00 | 0.00 | 93 | 1015.3 |
| 20260505122312 | 54 | 158 | 0.9 | 0.9 | 0.00 | 0.00 | 0.00 | 93 | 1015.2 |
| 20260505121809 | 54 | 229 | 2.6 | 2.6 | 0.00 | 0.00 | 0.00 | 93 | 1015.3 |
| 20260505121306 | 54 | 146 | 0.9 | 0.9 | 0.00 | 0.00 | 0.00 | 93 | 1015.4 |
| 20260505120802 | 54 | 185 | 2.6 | 2.6 | 0.00 | 0.00 | 0.00 | 93 | 1015.0 |
| 20260505120258 | 54 | 142 | 0.9 | 0.9 | 0.00 | 0.00 | 0.00 | 93 | 1015.2 |
| 20260505115757 | 54 | 193 | 2.6 | 4.3 | 0.00 | 0.00 | 0.00 | 93 | 1015.1 |
| 20260505115254 | 54 | 243 | 3.5 | 4.3 | 0.00 | 0.00 | 0.00 | 93 | 1015.2 |
| 20260505114752 | 54 | 177 | 1.7 | 1.7 | 0.00 | 0.00 | 0.00 | 93 | 1015.2 |
| 20260505114248 | 54 | 178 | 0.9 | 1.7 | 0.00 | 0.00 | 0.00 | 93 | 1015.0 |
| 20260505113745 | 54 | 152 | 2.6 | 2.6 | 0.00 | 0.00 | 0.00 | 93 | 1015.0 |
| 20260505113241 | 54 | 202 | 3.5 | 4.3 | 0.00 | 0.00 | 0.00 | 93 | 1015.1 |
| 20260505112737 | 54 | 138 | 2.6 | 4.3 | 0.00 | 0.00 | 0.00 | 93 | 1014.9 |
| 20260505112235 | 54 | 185 | 0.9 | 1.7 | 0.00 | 0.00 | 0.00 | 93 | 1015.1 |
| 20260505111735 | 54 | 173 | 2.6 | 4.3 | 0.00 | 0.00 | 0.00 | 94 | 1015.1 |
| 20260505111231 | 54 | 174 | 3.5 | 4.3 | 0.00 | 0.00 | 0.00 | 94 | 1015.0 |
| 20260505110727 | 54 | 162 | 0.0 | 0.9 | 0.00 | 0.00 | 0.00 | 94 | 1015.0 |
| 20260505110225 | 54 | 155 | 0.0 | 0.0 | 0.00 | 0.00 | 0.00 | 94 | 1015.0 |
| 20260505102200 | 54 | 202 | 1.7 | 1.7 | 0.00 | 0.00 | 0.00 | 94 | 1014.5 |
| 20260505101659 | 54 | 120 | 2.6 | 4.3 | 0.00 | 0.00 | 0.00 | 94 | 1014.6 |
| 20260505101154 | 54 | 190 | 3.5 | 4.3 | 0.00 | 0.00 | 0.00 | 94 | 1014.6 |
| 20260505100651 | 54 | 183 | 0.9 | 2.6 | 0.00 | 0.00 | 0.00 | 94 | 1014.6 |
| 20260505100148 | 54 | 213 | 1.7 | 2.6 | 0.00 | 0.00 | 0.00 | 94 | 1014.5 |
| 20260505095644 | 54 | 176 | 5.2 | 7.8 | 0.00 | 0.00 | 0.00 | 94 | 1014.6 |
| 20260505095141 | 54 | 212 | 2.6 | 4.3 | 0.00 | 0.00 | 0.00 | 94 | 1014.4 |
| 20260505094637 | 54 | 187 | 0.9 | 1.7 | 0.00 | 0.00 | 0.00 | 94 | 1014.4 |
| 20260505094134 | 54 | 180 | 1.7 | 1.7 | 0.00 | 0.00 | 0.00 | 94 | 1014.4 |
| 20260505093630 | 54 | 157 | 3.5 | 5.2 | 0.00 | 0.00 | 0.00 | 94 | 1014.4 |
| 20260505093127 | 54 | 184 | 0.0 | 0.9 | 0.00 | 0.00 | 0.00 | 94 | 1014.3 |
| 20260505092624 | 54 | 183 | 3.5 | 4.3 | 0.00 | 0.00 | 0.00 | 94 | 1014.3 |
| 20260505092123 | 54 | 194 | 3.5 | 4.3 | 0.00 | 0.00 | 0.00 | 94 | 1014.1 |
| 20260505091619 | 54 | 186 | 4.3 | 5.2 | 0.00 | 0.00 | 0.00 | 95 | 1014.3 |
| 20260505091118 | 54 | 169 | 0.9 | 0.9 | 0.00 | 0.00 | 0.00 | 95 | 1014.2 |
| 20260505090615 | 53 | 180 | 0.9 | 0.9 | 0.00 | 0.00 | 0.00 | 95 | 1014.4 |
| 20260505090113 | 53 | 185 | 3.5 | 4.3 | 0.00 | 0.00 | 0.00 | 95 | 1014.3 |
| 20260505085610 | 53 | 192 | 2.6 | 2.6 | 0.00 | 0.00 | 0.00 | 95 | 1014.2 |
| 20260505085109 | 53 | 195 | 3.5 | 4.3 | 0.00 | 0.00 | 0.00 | 95 | 1014.2 |
| 20260505084606 | 53 | 248 | 2.6 | 5.2 | 0.00 | 0.00 | 0.00 | 95 | 1014.0 |
| 20260505084104 | 53 | 198 | 1.7 | 1.7 | 0.00 | 0.00 | 0.00 | 95 | 1014.2 |
| 20260505083601 | 53 | 216 | 1.7 | 2.6 | 0.00 | 0.00 | 0.00 | 96 | 1014.0 |
| 20260505083058 | 53 | 216 | 1.7 | 1.7 | 0.00 | 0.00 | 0.00 | 96 | 1014.1 |
| 20260505082553 | 53 | 205 | 1.7 | 1.7 | 0.00 | 0.00 | 0.00 | 96 | 1014.2 |
| 20260505082051 | 53 | 200 | 1.7 | 1.7 | 0.00 | 0.00 | 0.00 | 96 | 1014.0 |
| 20260505081547 | 53 | 165 | 2.6 | 2.6 | 0.00 | 0.00 | 0.00 | 96 | 1014.0 |
| 20260505081044 | 53 | 182 | 2.6 | 2.6 | 0.00 | 0.00 | 0.00 | 96 | 1014.1 |
| 20260505080540 | 53 | 146 | 0.0 | 0.9 | 0.00 | 0.00 | 0.00 | 96 | 1013.9 |
| 20260505080037 | 53 | 175 | 1.7 | 1.7 | 0.00 | 0.00 | 0.00 | 96 | 1014.2 |
| 20260505075533 | 53 | 181 | 0.9 | 0.9 | 0.00 | 0.00 | 0.00 | 96 | 1013.8 |
| 20260505075030 | 53 | 196 | 1.7 | 1.7 | 0.00 | 0.00 | 0.00 | 96 | 1013.7 |
| 20260505074527 | 53 | 167 | 0.9 | 0.9 | 0.00 | 0.00 | 0.00 | 95 | 1013.9 |
| 20260505074024 | 53 | 184 | 1.7 | 1.7 | 0.00 | 0.00 | 0.00 | 95 | 1013.8 |
| 20260505073521 | 54 | 186 | 0.9 | 0.9 | 0.00 | 0.00 | 0.00 | 95 | 1013.8 |
| 20260505073020 | 54 | 197 | 1.7 | 1.7 | 0.00 | 0.00 | 0.00 | 95 | 1013.8 |
| 20260505072515 | 54 | 182 | 1.7 | 1.7 | 0.00 | 0.00 | 0.00 | 95 | 1013.6 |
| 20260505072011 | 54 | 189 | 0.9 | 1.7 | 0.00 | 0.00 | 0.00 | 95 | 1013.6 |
| 20260505071507 | 54 | 183 | 0.0 | 0.0 | 0.00 | 0.00 | 0.00 | 94 | 1013.5 |
| 20260505071006 | 54 | 185 | 0.9 | 1.7 | 0.00 | 0.00 | 0.00 | 94 | 1013.4 |
| 20260505070502 | 54 | 198 | 0.9 | 1.7 | 0.00 | 0.00 | 0.00 | 94 | 1013.4 |
| 20260505065958 | 54 | 195 | 0.9 | 1.7 | 0.00 | 0.00 | 0.00 | 94 | 1013.5 |
| 20260505065454 | 54 | 232 | 2.6 | 2.6 | 0.00 | 0.00 | 0.00 | 93 | 1013.0 |
| 20260505064951 | 54 | 198 | 0.9 | 1.7 | 0.00 | 0.00 | 0.00 | 93 | 1013.2 |
| 20260505064448 | 54 | 200 | 0.9 | 1.7 | 0.00 | 0.00 | 0.00 | 93 | 1013.2 |
| 20260505063947 | 54 | 230 | 2.6 | 2.6 | 0.00 | 0.00 | 0.00 | 93 | 1013.4 |
| 20260505063442 | 55 | 186 | 0.9 | 1.7 | 0.00 | 0.00 | 0.00 | 93 | 1013.1 |
| 20260505062939 | 55 | 217 | 2.6 | 2.6 | 0.00 | 0.00 | 0.00 | 92 | 1012.9 |
| 20260505062436 | 55 | 195 | 1.7 | 1.7 | 0.00 | 0.00 | 0.00 | 92 | 1013.0 |
| 20260505061933 | 55 | 188 | 2.6 | 2.6 | 0.00 | 0.00 | 0.00 | 92 | 1012.7 |
| 20260505061431 | 55 | 218 | 1.7 | 1.7 | 0.00 | 0.00 | 0.00 | 92 | 1012.8 |
| 20260505060928 | 55 | 182 | 0.9 | 0.9 | 0.00 | 0.00 | 0.00 | 91 | 1012.7 |
| 20260505060425 | 55 | 192 | 1.7 | 1.7 | 0.00 | 0.00 | 0.00 | 91 | 1012.7 |
| 20260505055922 | 55 | 192 | 0.9 | 0.9 | 0.00 | 0.00 | 0.00 | 91 | 1012.5 |
| 20260505055418 | 56 | 222 | 1.7 | 2.6 | 0.00 | 0.00 | 0.00 | 90 | 1012.3 |
| 20260505054915 | 56 | 240 | 3.5 | 4.3 | 0.00 | 0.00 | 0.00 | 90 | 1012.4 |
| 20260505054412 | 56 | 255 | 4.3 | 5.2 | 0.00 | 0.00 | 0.00 | 90 | 1012.4 |
| 20260505053910 | 56 | 255 | 2.6 | 2.6 | 0.00 | 0.00 | 0.00 | 90 | 1012.2 |
| 20260505053407 | 56 | 228 | 1.7 | 2.6 | 0.00 | 0.00 | 0.00 | 89 | 1012.2 |
| 20260505052903 | 56 | 221 | 2.6 | 4.3 | 0.00 | 0.00 | 0.00 | 89 | 1012.2 |
| 20260505052400 | 56 | 256 | 2.6 | 2.6 | 0.00 | 0.00 | 0.00 | 88 | 1012.2 |
| 20260505051858 | 57 | 177 | 0.9 | 0.9 | 0.00 | 0.00 | 0.00 | 88 | 1012.0 |
| 20260505051355 | 57 | 173 | 0.9 | 0.9 | 0.00 | 0.00 | 0.00 | 87 | 1012.0 |
| 20260505050853 | 57 | 199 | 2.6 | 4.3 | 0.00 | 0.00 | 0.00 | 87 | 1012.0 |
| 20260505050351 | 57 | 229 | 4.3 | 6.1 | 0.00 | 0.00 | 0.00 | 86 | 1012.2 |
| 20260505041318 | 60 | 208 | 1.7 | 1.7 | 0.00 | 0.00 | 0.00 | 81 | 1011.3 |
| 20260505040815 | 60 | 244 | 2.6 | 4.3 | 0.00 | 0.00 | 0.00 | 80 | 1011.4 |
| 20260505040313 | 61 | 256 | 7.0 | 7.8 | 0.00 | 0.00 | 0.00 | 79 | 1011.3 |
| 20260505035809 | 61 | 244 | 3.5 | 4.3 | 0.00 | 0.00 | 0.00 | 78 | 1011.1 |
| 20260505035305 | 62 | 237 | 0.9 | 1.7 | 0.00 | 0.00 | 0.00 | 78 | 1011.3 |
| 20260505034803 | 62 | 237 | 3.5 | 4.3 | 0.00 | 0.00 | 0.00 | 77 | 1011.1 |
| 20260505034259 | 62 | 238 | 4.3 | 6.1 | 0.00 | 0.00 | 0.00 | 76 | 1011.0 |
| 20260505033756 | 62 | 260 | 7.8 | 9.6 | 0.00 | 0.00 | 0.00 | 76 | 1011.1 |
| 20260505033254 | 63 | 266 | 7.8 | 8.7 | 0.00 | 0.00 | 0.00 | 75 | 1011.0 |
| 20260505032751 | 63 | 233 | 8.7 | 12.2 | 0.00 | 0.00 | 0.00 | 74 | 1010.9 |
| 20260505032247 | 64 | 220 | 2.6 | 2.6 | 0.00 | 0.00 | 0.00 | 73 | 1010.8 |
| 20260505031744 | 64 | 295 | 4.3 | 6.1 | 0.00 | 0.00 | 0.00 | 73 | 1010.6 |
| 20260505031241 | 65 | 191 | 3.5 | 5.2 | 0.00 | 0.00 | 0.00 | 72 | 1010.8 |
| 20260505030738 | 65 | 249 | 3.5 | 6.1 | 0.00 | 0.00 | 0.00 | 71 | 1010.7 |
| 20260505030234 | 66 | 218 | 6.1 | 7.8 | 0.00 | 0.00 | 0.00 | 70 | 1010.6 |
| 20260505025730 | 66 | 260 | 5.2 | 8.7 | 0.00 | 0.00 | 0.00 | 69 | 1010.4 |
| 20260505025228 | 66 | 275 | 11.3 | 13.0 | 0.00 | 0.00 | 0.00 | 69 | 1010.3 |
| 20260505024726 | 67 | 281 | 6.1 | 8.7 | 0.00 | 0.00 | 0.00 | 68 | 1010.3 |
| 20260505024223 | 67 | 256 | 5.2 | 7.8 | 0.00 | 0.00 | 0.00 | 67 | 1010.2 |
| 20260505023720 | 68 | 259 | 4.3 | 5.2 | 0.00 | 0.00 | 0.00 | 66 | 1010.2 |
| 20260505023217 | 68 | 259 | 6.1 | 7.0 | 0.00 | 0.00 | 0.00 | 65 | 1010.2 |
| 20260505022715 | 69 | 238 | 7.0 | 8.7 | 0.00 | 0.00 | 0.00 | 64 | 1010.1 |
| 20260505022211 | 69 | 160 | 0.9 | 0.9 | 0.00 | 0.00 | 0.00 | 64 | 1010.1 |
| 20260505021708 | 70 | 322 | 7.8 | 9.6 | 0.00 | 0.00 | 0.00 | 62 | 1010.2 |
| 20260505021206 | 70 | 259 | 7.8 | 9.6 | 0.00 | 0.00 | 0.00 | 62 | 1010.0 |
| 20260505020701 | 71 | 282 | 6.1 | 7.8 | 0.00 | 0.00 | 0.00 | 61 | 1010.1 |
| 20260505020151 | 71 | 250 | 2.6 | 2.6 | 0.00 | 0.00 | 0.00 | 60 | 1009.9 |
| 20260505015649 | 72 | 298 | 2.6 | 4.3 | 0.00 | 0.00 | 0.00 | 60 | 1010.1 |
| 20260505015145 | 73 | 225 | 6.1 | 6.1 | 0.00 | 0.00 | 0.00 | 59 | 1010.1 |
| 20260505014642 | 73 | 154 | 2.6 | 2.6 | 0.00 | 0.00 | 0.00 | 58 | 1009.9 |
| 20260505014139 | 73 | 295 | 8.7 | 9.6 | 0.00 | 0.00 | 0.00 | 58 | 1009.9 |
| 20260505013637 | 74 | 148 | 1.7 | 2.6 | 0.00 | 0.00 | 0.00 | 58 | 1010.0 |
| 20260505013133 | 74 | 260 | 6.1 | 7.0 | 0.00 | 0.00 | 0.00 | 58 | 1010.0 |
| 20260505012632 | 75 | 229 | 1.7 | 1.7 | 0.00 | 0.00 | 0.00 | 57 | 1009.9 |
| 20260505012128 | 76 | 261 | 6.1 | 7.0 | 0.00 | 0.00 | 0.00 | 56 | 1010.1 |
| 20260505011624 | 76 | 271 | 2.6 | 2.6 | 0.00 | 0.00 | 0.00 | 56 | 1010.0 |
| 20260505011121 | 75 | 215 | 4.3 | 5.2 | 0.00 | 0.00 | 0.00 | 57 | 1009.9 |
| 20260505010616 | 76 | 277 | 5.2 | 6.1 | 0.00 | 0.00 | 0.00 | 56 | 1010.1 |
| 20260505010114 | 76 | 294 | 4.3 | 6.1 | 0.00 | 0.00 | 0.00 | 56 | 1010.1 |
| 20260505005610 | 76 | 171 | 2.6 | 5.2 | 0.00 | 0.00 | 0.00 | 55 | 1010.1 |
| 20260505005107 | 76 | 249 | 0.9 | 1.7 | 0.00 | 0.00 | 0.00 | 54 | 1009.7 |
| 20260505004604 | 76 | 257 | 2.6 | 4.3 | 0.00 | 0.00 | 0.00 | 54 | 1010.1 |
| 20260505004101 | 76 | 263 | 3.5 | 4.3 | 0.00 | 0.00 | 0.00 | 53 | 1010.1 |
| 20260505003558 | 76 | 269 | 1.7 | 1.7 | 0.00 | 0.00 | 0.00 | 54 | 1009.9 |
| 20260505003055 | 77 | 236 | 5.2 | 6.1 | 0.00 | 0.00 | 0.00 | 54 | 1010.0 |
| 20260505002550 | 77 | 277 | 5.2 | 7.0 | 0.00 | 0.00 | 0.00 | 54 | 1010.0 |
| 20260505002049 | 76 | 291 | 4.3 | 5.2 | 0.00 | 0.00 | 0.00 | 54 | 1010.0 |
| 20260505001546 | 76 | 241 | 5.2 | 6.1 | 0.00 | 0.00 | 0.00 | 55 | 1010.1 |
| 20260505001043 | 77 | 248 | 9.6 | 12.2 | 0.00 | 0.00 | 0.00 | 55 | 1009.8 |
| 20260505000540 | 77 | 254 | 3.5 | 4.3 | 0.00 | 0.00 | 0.00 | 53 | 1009.8 |
| 20260505000038 | 77 | 246 | 2.6 | 5.2 | 0.00 | 0.00 | 0.00 | 53 | 1010.1 |
| 20260504235534 | 77 | 270 | 6.1 | 7.0 | 0.00 | 0.00 | 0.00 | 54 | 1009.9 |
| 20260504235031 | 76 | 263 | 3.5 | 4.3 | 0.00 | 0.00 | 0.00 | 55 | 1009.9 |
| 20260504234528 | 76 | 238 | 1.7 | 4.3 | 0.00 | 0.00 | 0.00 | 55 | 1009.9 |
| 20260504234025 | 77 | 223 | 5.2 | 7.0 | 0.00 | 0.00 | 0.00 | 53 | 1009.8 |
| 20260504233520 | 77 | 218 | 2.6 | 2.6 | 0.00 | 0.00 | 0.00 | 53 | 1010.0 |
| 20260504233018 | 78 | 228 | 3.5 | 5.2 | 0.00 | 0.00 | 0.00 | 52 | 1009.8 |
| 20260504232514 | 77 | 292 | 4.3 | 6.1 | 0.00 | 0.00 | 0.00 | 53 | 1009.7 |
| 20260504232012 | 77 | 240 | 0.9 | 0.9 | 0.00 | 0.00 | 0.00 | 53 | 1009.9 |
| 20260504231509 | 76 | 203 | 3.5 | 4.3 | 0.00 | 0.00 | 0.00 | 53 | 1010.0 |
| 20260504231005 | 78 | 254 | 4.3 | 6.1 | 0.00 | 0.00 | 0.00 | 52 | 1010.0 |
| 20260504230501 | 76 | 236 | 2.6 | 2.6 | 0.00 | 0.00 | 0.00 | 52 | 1009.9 |
| 20260504230000 | 77 | 263 | 4.3 | 6.1 | 0.00 | 0.00 | 0.00 | 52 | 1010.2 |
| 20260504225456 | 78 | 247 | 6.1 | 7.8 | 0.00 | 0.00 | 0.00 | 52 | 1010.5 |
| 20260504224954 | 78 | 189 | 3.5 | 4.3 | 0.00 | 0.00 | 0.00 | 50 | 1010.2 |
| 20260504224450 | 78 | 167 | 2.6 | 2.6 | 0.00 | 0.00 | 0.00 | 47 | 1010.6 |
| 20260504223947 | 78 | 198 | 4.3 | 6.1 | 0.00 | 0.00 | 0.00 | 48 | 1010.3 |
| 20260504223443 | 78 | 210 | 2.6 | 4.3 | 0.00 | 0.00 | 0.00 | 47 | 1010.6 |
| 20260504222939 | 78 | 258 | 5.2 | 7.0 | 0.00 | 0.00 | 0.00 | 47 | 1010.5 |
| 20260504222437 | 77 | 249 | 4.3 | 6.1 | 0.00 | 0.00 | 0.00 | 49 | 1010.7 |
| 20260504221934 | 77 | 221 | 2.6 | 2.6 | 0.00 | 0.00 | 0.00 | 49 | 1010.4 |
| 20260504221431 | 75 | 197 | 0.9 | 0.9 | 0.00 | 0.00 | 0.00 | 52 | 1010.5 |
| 20260504220928 | 78 | 255 | 6.1 | 9.6 | 0.00 | 0.00 | 0.00 | 50 | 1010.7 |
| 20260504220425 | 77 | 264 | 6.1 | 7.8 | 0.00 | 0.00 | 0.00 | 53 | 1010.9 |
| 20260504215922 | 77 | 211 | 2.6 | 4.3 | 0.00 | 0.00 | 0.00 | 52 | 1010.9 |
| 20260504215419 | 77 | 216 | 2.6 | 5.2 | 0.00 | 0.00 | 0.00 | 53 | 1010.9 |
| 20260504214915 | 77 | 279 | 6.1 | 7.0 | 0.00 | 0.00 | 0.00 | 53 | 1010.8 |
| 20260504214412 | 76 | 198 | 4.3 | 5.2 | 0.00 | 0.00 | 0.00 | 51 | 1011.0 |
| 20260504213908 | 77 | 310 | 2.6 | 2.6 | 0.00 | 0.00 | 0.00 | 54 | 1010.9 |
| 20260504213404 | 75 | 259 | 2.6 | 2.6 | 0.00 | 0.00 | 0.00 | 51 | 1011.0 |
| 20260504212902 | 77 | 262 | 9.6 | 11.3 | 0.00 | 0.00 | 0.00 | 52 | 1011.0 |
| 20260504212357 | 75 | 216 | 4.3 | 7.0 | 0.00 | 0.00 | 0.00 | 53 | 1011.2 |
| 20260504211856 | 75 | 280 | 4.3 | 6.1 | 0.00 | 0.00 | 0.00 | 53 | 1011.0 |
| 20260504211351 | 75 | 203 | 2.6 | 4.3 | 0.00 | 0.00 | 0.00 | 53 | 1011.2 |
| 20260504210849 | 75 | 251 | 6.1 | 7.0 | 0.00 | 0.00 | 0.00 | 53 | 1011.2 |
| 20260504210346 | 76 | 293 | 6.1 | 7.0 | 0.00 | 0.00 | 0.00 | 52 | 1011.0 |
| 20260504205843 | 76 | 291 | 5.2 | 7.8 | 0.00 | 0.00 | 0.00 | 52 | 1011.2 |
| 20260504205341 | 77 | 269 | 4.3 | 6.1 | 0.00 | 0.00 | 0.00 | 50 | 1011.3 |
| 20260504204839 | 75 | 186 | 3.5 | 4.3 | 0.00 | 0.00 | 0.00 | 50 | 1011.4 |
| 20260504204337 | 76 | 230 | 4.3 | 5.2 | 0.00 | 0.00 | 0.00 | 52 | 1011.0 |
| 20260504203836 | 77 | 253 | 3.5 | 4.3 | 0.00 | 0.00 | 0.00 | 50 | 1011.2 |
| 20260504203332 | 77 | 210 | 0.9 | 1.7 | 0.00 | 0.00 | 0.00 | 49 | 1011.2 |
| 20260504202828 | 75 | 199 | 1.7 | 1.7 | 0.00 | 0.00 | 0.00 | 52 | 1011.3 |
| 20260504202326 | 75 | 170 | 0.9 | 0.9 | 0.00 | 0.00 | 0.00 | 49 | 1011.3 |
| 20260504201822 | 75 | 182 | 1.7 | 1.7 | 0.00 | 0.00 | 0.00 | 50 | 1011.2 |
| 20260504201320 | 74 | 240 | 1.7 | 1.7 | 0.00 | 0.00 | 0.00 | 50 | 1011.5 |
| 20260504200817 | 75 | 230 | 1.7 | 1.7 | 0.00 | 0.00 | 0.00 | 48 | 1011.5 |
| 20260504200313 | 73 | 240 | 1.7 | 1.7 | 0.00 | 0.00 | 0.00 | 48 | 1011.6 |
| 20260504195809 | 74 | 235 | 4.3 | 6.1 | 0.00 | 0.00 | 0.00 | 50 | 1011.6 |
| 20260504195305 | 73 | 267 | 7.0 | 7.8 | 0.00 | 0.00 | 0.00 | 51 | 1011.4 |
| 20260504194803 | 74 | 247 | 0.9 | 0.9 | 0.00 | 0.00 | 0.00 | 50 | 1011.6 |
| 20260504194259 | 75 | 228 | 4.3 | 5.2 | 0.00 | 0.00 | 0.00 | 51 | 1011.8 |
| 20260504193755 | 74 | 262 | 1.7 | 1.7 | 0.00 | 0.00 | 0.00 | 50 | 1011.6 |
| 20260504193252 | 73 | 213 | 2.6 | 2.6 | 0.00 | 0.00 | 0.00 | 55 | 1011.7 |
| 20260504192751 | 72 | 226 | 4.3 | 5.2 | 0.00 | 0.00 | 0.00 | 54 | 1011.7 |
| 20260504192248 | 72 | 234 | 2.6 | 4.3 | 0.00 | 0.00 | 0.00 | 56 | 1011.8 |
| 20260504191747 | 71 | 232 | 1.7 | 2.6 | 0.00 | 0.00 | 0.00 | 55 | 1011.7 |
| 20260504191243 | 72 | 247 | 7.0 | 7.8 | 0.00 | 0.00 | 0.00 | 54 | 1011.7 |
| 20260504190739 | 70 | 285 | 5.2 | 6.1 | 0.00 | 0.00 | 0.00 | 56 | 1011.8 |
| 20260504190236 | 71 | 264 | 4.3 | 7.0 | 0.00 | 0.00 | 0.00 | 56 | 1011.8 |
| 20260504185732 | 71 | 217 | 5.2 | 7.8 | 0.00 | 0.00 | 0.00 | 57 | 1011.9 |
| 20260504185229 | 71 | 177 | 0.9 | 2.6 | 0.00 | 0.00 | 0.00 | 54 | 1012.2 |
| 20260504184725 | 70 | 269 | 5.2 | 6.1 | 0.00 | 0.00 | 0.00 | 57 | 1012.1 |
| 20260504184221 | 70 | 232 | 2.6 | 2.6 | 0.00 | 0.00 | 0.00 | 57 | 1012.0 |
| 20260504183717 | 70 | 289 | 4.3 | 6.1 | 0.00 | 0.00 | 0.00 | 58 | 1012.0 |
| 20260504183214 | 70 | 171 | 2.6 | 4.3 | 0.00 | 0.00 | 0.00 | 59 | 1012.1 |
| 20260504182712 | 71 | 225 | 0.9 | 1.7 | 0.00 | 0.00 | 0.00 | 59 | 1012.2 |
| 20260504182209 | 68 | 288 | 5.2 | 7.0 | 0.00 | 0.00 | 0.00 | 62 | 1012.2 |
| 20260504181707 | 70 | 300 | 5.2 | 5.2 | 0.00 | 0.00 | 0.00 | 60 | 1012.2 |
| 20260504181204 | 69 | 245 | 2.6 | 2.6 | 0.00 | 0.00 | 0.00 | 62 | 1012.3 |
| 20260504180703 | 68 | 181 | 3.5 | 4.3 | 0.00 | 0.00 | 0.00 | 61 | 1012.3 |
| 20260504180201 | 68 | 277 | 3.5 | 4.3 | 0.00 | 0.00 | 0.00 | 62 | 1012.0 |
| 20260504175658 | 68 | 230 | 3.5 | 4.3 | 0.00 | 0.00 | 0.00 | 63 | 1012.1 |
| 20260504175155 | 68 | 184 | 2.6 | 2.6 | 0.00 | 0.00 | 0.00 | 64 | 1012.4 |
| 20260504174653 | 69 | 250 | 2.6 | 2.6 | 0.00 | 0.00 | 0.00 | 60 | 1012.1 |
| 20260504174150 | 68 | 166 | 0.9 | 0.9 | 0.00 | 0.00 | 0.00 | 63 | 1012.2 |
| 20260504173646 | 68 | 205 | 1.7 | 1.7 | 0.00 | 0.00 | 0.00 | 64 | 1012.3 |
| 20260504173144 | 68 | 193 | 4.3 | 6.1 | 0.00 | 0.00 | 0.00 | 63 | 1011.9 |
| 20260504172640 | 68 | 181 | 4.3 | 5.2 | 0.00 | 0.00 | 0.00 | 64 | 1012.1 |
| 20260504172137 | 68 | 176 | 3.5 | 4.3 | 0.00 | 0.00 | 0.00 | 65 | 1012.1 |
| 20260504171633 | 67 | 146 | 0.9 | 1.7 | 0.00 | 0.00 | 0.00 | 64 | 1012.2 |
| 20260504171131 | 68 | 198 | 2.6 | 4.3 | 0.00 | 0.00 | 0.00 | 64 | 1012.0 |
| 20260504170627 | 68 | 197 | 2.6 | 2.6 | 0.00 | 0.00 | 0.00 | 65 | 1012.2 |
| 20260504170125 | 67 | 191 | 1.7 | 1.7 | 0.00 | 0.00 | 0.00 | 66 | 1012.1 |